This is the latest recevied weather packets stored in our database for station/object KR4DFQ. If no packets are shown the sender has not sent any weather packets the latest 10 day(s).
| Time | Temp. | Humidity | Pressure | Rain* | Wind** | Luminosity | Snow |
|---|---|---|---|---|---|---|---|
| 1787613393 | 30.56° C | 65% | 1016 hPa | 0 mm | - | 26 W/m² | - |
| 1787613090 | 30.56° C | 65% | 1016.1 hPa | 0 mm | - | 31 W/m² | - |
| 1787612787 | 30.56° C | 65% | 1015.9 hPa | 0 mm | - | 31 W/m² | - |
| 1787612482 | 30.56° C | 65% | 1015.7 hPa | 0 mm | - | 31 W/m² | - |
| 1787612178 | 30.56° C | 65% | 1015.6 hPa | 0 mm | - | 33 W/m² | - |
| 1787611874 | 31.11° C | 63% | 1015.3 hPa | 0 mm | - | 35 W/m² | - |
| 1787611570 | 31.11° C | 62% | 1015.6 hPa | 0 mm | - | 38 W/m² | - |
| 1787611266 | 31.11° C | 61% | 1015.4 hPa | 0 mm | - | 42 W/m² | - |
| 1787610961 | 31.11° C | 60% | 1015.4 hPa | 0 mm | - | 53 W/m² | - |
| 1787610657 | 31.67° C | 60% | 1015.7 hPa | 0 mm | - | 52 W/m² | - |
| 1787610351 | 31.67° C | 58% | 1015.8 hPa | 0 mm | - | 60 W/m² | - |
| 1787610050 | 31.67° C | 57% | 1015.8 hPa | 0 mm | - | 76 W/m² | - |
| 1787609745 | 32.22° C | 54% | 1015.4 hPa | 0 mm | - | 112 W/m² | - |
| 1787609440 | 32.22° C | 59% | 1015.7 hPa | 0 mm | - | 129 W/m² | - |
| 1787609139 | 32.78° C | 58% | 1015.8 hPa | 0 mm | - | 170 W/m² | - |
| 1787608835 | 32.78° C | 56% | 1015.4 hPa | 0 mm | - | 225 W/m² | - |
| 1787608533 | 32.78° C | 57% | 1015.6 hPa | 0 mm | - | 253 W/m² | - |
| 1787608230 | 32.22° C | 57% | 1015.6 hPa | 0 mm | - | 169 W/m² | - |
| 1787607927 | 32.22° C | 58% | 1015.4 hPa | 0 mm | - | 247 W/m² | - |
| 1787607623 | 32.78° C | 57% | 1015.4 hPa | 0 mm | - | 196 W/m² | - |
| 1787607320 | 33.33° C | 56% | 1015.4 hPa | 0 mm | - | 156 W/m² | - |
| 1787607016 | 33.33° C | 57% | 1015.4 hPa | 0 mm | - | 364 W/m² | - |
| 1787606715 | 33.89° C | 58% | 1015.6 hPa | 0 mm | - | 402 W/m² | - |
| 1787606408 | 33.89° C | 58% | 1015.3 hPa | 0 mm | - | 433 W/m² | - |
| 1787606103 | 33.89° C | 57% | 1015.6 hPa | 0 mm | - | 422 W/m² | - |
* Rain latest hour (hover to see other rain measurements)
** Current wind speed in m/s (hover to see current wind gust speed)